| time (UTC) | temp C | wind direction | speed KPH | gust KPH | rain 1hr cm | rain 24hr cm | rain mn cm | humidity % | barometer mb |
| 20260505211854 | 30 | 11 | 1.6 | 1.6 | 0.00 | 0.00 | 0.00 | 68 | 1008.1 |
| 20260505211351 | 30 | 97 | 3.2 | 6.4 | 0.00 | 0.00 | 0.00 | 68 | 1008.2 |
| 20260505210848 | 30 | 91 | 1.6 | 6.4 | 0.00 | 0.00 | 0.00 | 69 | 1008.5 |
| 20260505210345 | 29 | 79 | 1.6 | 9.7 | 0.00 | 0.00 | 0.00 | 72 | 1008.5 |
| 20260505205841 | 29 | 81 | 3.2 | 4.8 | 0.00 | 0.00 | 0.00 | 71 | 1008.8 |
| 20260505205340 | 29 | 72 | 1.6 | 4.8 | 0.00 | 0.00 | 0.00 | 71 | 1008.7 |
| 20260505204837 | 30 | 86 | 3.2 | 4.8 | 0.00 | 0.00 | 0.00 | 69 | 1008.8 |
| 20260505204334 | 31 | 225 | 6.4 | 6.4 | 0.00 | 0.00 | 0.00 | 67 | 1008.8 |
| 20260505203831 | 30 | 12 | 1.6 | 1.6 | 0.00 | 0.00 | 0.00 | 69 | 1009.0 |
| 20260505203328 | 30 | 251 | 1.6 | 3.2 | 0.00 | 0.00 | 0.00 | 70 | 1008.9 |
| 20260505202824 | 29 | 67 | 0.0 | 4.8 | 0.00 | 0.00 | 0.00 | 72 | 1009.1 |
| 20260505202320 | 29 | 71 | 0.0 | 3.2 | 0.00 | 0.00 | 0.00 | 71 | 1009.1 |
| 20260505201817 | 29 | 225 | 1.6 | 3.2 | 0.00 | 0.00 | 0.00 | 71 | 1009.1 |
| 20260505201315 | 30 | 77 | 1.6 | 6.4 | 0.00 | 0.00 | 0.00 | 70 | 1009.2 |
| 20260505200813 | 30 | 94 | 1.6 | 3.2 | 0.00 | 0.00 | 0.00 | 68 | 1009.4 |
| 20260505200309 | 31 | 72 | 1.6 | 1.6 | 0.00 | 0.00 | 0.00 | 69 | 1009.4 |
| 20260505195804 | 30 | 53 | 1.6 | 3.2 | 0.00 | 0.00 | 0.00 | 68 | 1009.5 |
| 20260505195305 | 30 | 78 | 1.6 | 11.3 | 0.00 | 0.00 | 0.00 | 69 | 1009.4 |
| 20260505194759 | 30 | 83 | 3.2 | 3.2 | 0.00 | 0.00 | 0.00 | 68 | 1009.6 |
| 20260505194256 | 30 | 168 | 3.2 | 4.8 | 0.00 | 0.00 | 0.00 | 71 | 1009.7 |
| 20260505193756 | 30 | 181 | 1.6 | 4.8 | 0.00 | 0.00 | 0.00 | 70 | 1009.8 |
| 20260505193254 | 29 | 49 | 1.6 | 6.4 | 0.00 | 0.00 | 0.00 | 71 | 1009.7 |
| 20260505192752 | 28 | 89 | 1.6 | 3.2 | 0.00 | 0.00 | 0.00 | 72 | 1009.9 |
| 20260505192250 | 29 | 65 | 0.0 | 3.2 | 0.00 | 0.00 | 0.00 | 72 | 1009.9 |
| 20260505191748 | 28 | 89 | 3.2 | 4.8 | 0.00 | 0.00 | 0.00 | 72 | 1009.9 |
| 20260505191246 | 28 | 100 | 1.6 | 3.2 | 0.00 | 0.00 | 0.00 | 74 | 1010.1 |
| 20260505190742 | 28 | 110 | 1.6 | 4.8 | 0.00 | 0.00 | 0.00 | 74 | 1010.0 |
| 20260505190237 | 28 | 29 | 3.2 | 6.4 | 0.00 | 0.00 | 0.00 | 73 | 1009.9 |
| 20260505185733 | 28 | 80 | 1.6 | 4.8 | 0.00 | 0.00 | 0.00 | 73 | 1010.0 |
| 20260505185230 | 28 | 134 | 3.2 | 4.8 | 0.00 | 0.00 | 0.00 | 73 | 1009.9 |
| 20260505184726 | 28 | 100 | 1.6 | 6.4 | 0.00 | 0.00 | 0.00 | 73 | 1010.0 |
| 20260505184224 | 28 | 19 | 1.6 | 3.2 | 0.00 | 0.00 | 0.00 | 74 | 1010.0 |
| 20260505183720 | 28 | 18 | 0.0 | 1.6 | 0.00 | 0.00 | 0.00 | 73 | 1010.0 |
| 20260505183218 | 28 | 304 | 3.2 | 4.8 | 0.00 | 0.00 | 0.00 | 71 | 1009.9 |
| 20260505182714 | 29 | 72 | 1.6 | 3.2 | 0.00 | 0.00 | 0.00 | 71 | 1010.0 |
| 20260505182211 | 28 | 223 | 1.6 | 6.4 | 0.00 | 0.00 | 0.00 | 73 | 1009.9 |
| 20260505181707 | 28 | 41 | 1.6 | 3.2 | 0.00 | 0.00 | 0.00 | 72 | 1010.1 |
| 20260505181205 | 28 | 76 | 3.2 | 14.5 | 0.00 | 0.00 | 0.00 | 71 | 1010.2 |
| 20260505180701 | 27 | 18 | 1.6 | 12.9 | 0.00 | 0.00 | 0.00 | 74 | 1010.1 |
| 20260505180158 | 28 | 292 | 3.2 | 6.4 | 0.00 | 0.00 | 0.00 | 73 | 1010.0 |
| 20260505175654 | 28 | 113 | 6.4 | 9.7 | 0.00 | 0.00 | 0.00 | 74 | 1010.3 |
| 20260505175151 | 28 | 89 | 0.0 | 3.2 | 0.00 | 0.00 | 0.00 | 74 | 1010.2 |
| 20260505174647 | 27 | 75 | 1.6 | 4.8 | 0.00 | 0.00 | 0.00 | 76 | 1010.3 |
| 20260505174143 | 27 | 297 | 1.6 | 4.8 | 0.00 | 0.00 | 0.00 | 77 | 1010.4 |
| 20260505173640 | 27 | 129 | 3.2 | 3.2 | 0.00 | 0.00 | 0.00 | 77 | 1010.4 |
| 20260505173137 | 27 | 108 | 1.6 | 3.2 | 0.00 | 0.00 | 0.00 | 77 | 1010.4 |
| 20260505172635 | 27 | 34 | 1.6 | 3.2 | 0.00 | 0.00 | 0.00 | 78 | 1010.7 |
| 20260505172131 | 27 | 318 | 4.8 | 6.4 | 0.00 | 0.00 | 0.00 | 77 | 1010.5 |
| 20260505171626 | 27 | 119 | 1.6 | 4.8 | 0.00 | 0.00 | 0.00 | 79 | 1010.6 |
| 20260505171123 | 26 | 83 | 3.2 | 11.3 | 0.00 | 0.00 | 0.00 | 80 | 1010.7 |
| 20260505170621 | 27 | 129 | 3.2 | 4.8 | 0.00 | 0.00 | 0.00 | 79 | 1010.7 |
| 20260505170117 | 27 | 66 | 0.0 | 3.2 | 0.00 | 0.00 | 0.00 | 79 | 1010.8 |
| 20260505165611 | 27 | 93 | 0.0 | 4.8 | 0.00 | 0.00 | 0.00 | 80 | 1010.6 |
| 20260505165108 | 26 | 71 | 1.6 | 3.2 | 0.00 | 0.00 | 0.00 | 81 | 1010.9 |
| 20260505164604 | 26 | 54 | 0.0 | 3.2 | 0.00 | 0.00 | 0.00 | 84 | 1010.5 |
| 20260505164102 | 25 | 73 | 0.0 | 4.8 | 0.00 | 0.00 | 0.00 | 84 | 1010.7 |
| 20260505163600 | 25 | 93 | 0.0 | 4.8 | 0.00 | 0.00 | 0.00 | 83 | 1010.9 |
| 20260505163057 | 26 | 83 | 3.2 | 6.4 | 0.00 | 0.00 | 0.00 | 83 | 1010.9 |
| 20260505162555 | 25 | 77 | 0.0 | 3.2 | 0.00 | 0.00 | 0.00 | 84 | 1010.9 |
| 20260505162052 | 25 | 86 | 1.6 | 4.8 | 0.00 | 0.00 | 0.00 | 84 | 1011.1 |
| 20260505161549 | 25 | 74 | 0.0 | 1.6 | 0.00 | 0.00 | 0.00 | 85 | 1010.9 |
| 20260505161047 | 25 | 99 | 0.0 | 1.6 | 0.00 | 0.00 | 0.00 | 85 | 1011.0 |
| 20260505160544 | 25 | 1 | 1.6 | 4.8 | 0.00 | 0.00 | 0.00 | 85 | 1010.9 |
| 20260505153021 | 23 | 52 | 1.6 | 3.2 | 0.00 | 0.00 | 0.00 | 90 | 1011.1 |
| 20260505152518 | 23 | 172 | 1.6 | 3.2 | 0.00 | 0.00 | 0.00 | 89 | 1010.9 |
| 20260505152013 | 23 | 74 | 3.2 | 3.2 | 0.00 | 0.00 | 0.00 | 90 | 1010.9 |
| 20260505151508 | 23 | 108 | 0.0 | 1.6 | 0.00 | 0.00 | 0.00 | 90 | 1010.9 |
| 20260505151006 | 23 | 19 | 1.6 | 3.2 | 0.00 | 0.00 | 0.00 | 90 | 1010.7 |
| 20260505150502 | 23 | 73 | 0.0 | 1.6 | 0.00 | 0.00 | 0.00 | 89 | 1010.8 |
| 20260505140432 | 22 | 73 | 0.0 | 1.6 | 0.00 | 0.00 | 0.00 | 91 | 1010.3 |
| 20260505124846 | 21 | 70 | 0.0 | 3.2 | 0.00 | 0.00 | 0.00 | 92 | 1010.0 |
| 20260505124343 | 21 | 126 | 1.6 | 4.8 | 0.00 | 0.00 | 0.00 | 92 | 1009.8 |
| 20260505123839 | 21 | 75 | 1.6 | 9.7 | 0.00 | 0.00 | 0.00 | 92 | 1010.0 |
| 20260505123336 | 21 | 143 | 1.6 | 3.2 | 0.00 | 0.00 | 0.00 | 92 | 1010.0 |
| 20260505122832 | 21 | 77 | 0.0 | 1.6 | 0.00 | 0.00 | 0.00 | 92 | 1010.1 |
| 20260505122329 | 21 | 75 | 1.6 | 4.8 | 0.00 | 0.00 | 0.00 | 92 | 1010.1 |
| 20260505121826 | 21 | 274 | 3.2 | 3.2 | 0.00 | 0.00 | 0.00 | 92 | 1010.2 |
| 20260505121323 | 21 | 76 | 1.6 | 1.6 | 0.00 | 0.00 | 0.00 | 92 | 1009.7 |
| 20260505120819 | 21 | 82 | 1.6 | 1.6 | 0.00 | 0.00 | 0.00 | 92 | 1009.5 |
| 20260505120315 | 21 | 87 | 3.2 | 3.2 | 0.00 | 0.00 | 0.00 | 92 | 1009.7 |
| 20260505115813 | 21 | 71 | 1.6 | 3.2 | 0.00 | 0.00 | 0.00 | 92 | 1009.7 |
| 20260505115311 | 21 | 119 | 1.6 | 4.8 | 0.00 | 0.00 | 0.00 | 92 | 1009.6 |
| 20260505114809 | 21 | 72 | 1.6 | 1.6 | 0.00 | 0.00 | 0.00 | 92 | 1009.8 |
| 20260505114305 | 21 | 90 | 0.0 | 3.2 | 0.00 | 0.00 | 0.00 | 92 | 1009.8 |
| 20260505113801 | 21 | 71 | 1.6 | 3.2 | 0.00 | 0.00 | 0.00 | 92 | 1009.7 |
| 20260505113258 | 21 | 74 | 1.6 | 3.2 | 0.00 | 0.00 | 0.00 | 92 | 1009.6 |
| 20260505112754 | 21 | 70 | 1.6 | 3.2 | 0.00 | 0.00 | 0.00 | 91 | 1009.6 |
| 20260505112252 | 21 | 75 | 1.6 | 4.8 | 0.00 | 0.00 | 0.00 | 91 | 1009.8 |
| 20260505111752 | 21 | 79 | 1.6 | 3.2 | 0.00 | 0.00 | 0.00 | 91 | 1009.7 |
| 20260505111248 | 21 | 85 | 1.6 | 3.2 | 0.00 | 0.00 | 0.00 | 91 | 1009.6 |
| 20260505110744 | 21 | 84 | 1.6 | 3.2 | 0.00 | 0.00 | 0.00 | 91 | 1009.6 |
| 20260505110242 | 21 | 62 | 1.6 | 1.6 | 0.00 | 0.00 | 0.00 | 91 | 1009.5 |
| 20260505102217 | 21 | 83 | 0.0 | 3.2 | 0.00 | 0.00 | 0.00 | 92 | 1009.5 |
| 20260505101716 | 21 | 73 | 0.0 | 3.2 | 0.00 | 0.00 | 0.00 | 92 | 1009.3 |
| 20260505101212 | 21 | 37 | 0.0 | 4.8 | 0.00 | 0.00 | 0.00 | 92 | 1009.8 |
| 20260505100708 | 21 | 81 | 1.6 | 4.8 | 0.00 | 0.00 | 0.00 | 92 | 1009.7 |
| 20260505100206 | 21 | 98 | 1.6 | 6.4 | 0.00 | 0.00 | 0.00 | 92 | 1009.9 |
| 20260505095701 | 21 | 91 | 0.0 | 3.2 | 0.00 | 0.00 | 0.00 | 92 | 1009.6 |
| 20260505095159 | 21 | 122 | 3.2 | 6.4 | 0.00 | 0.00 | 0.00 | 92 | 1009.7 |
| 20260505094654 | 21 | 76 | 0.0 | 3.2 | 0.00 | 0.00 | 0.00 | 92 | 1009.7 |
| 20260505094151 | 21 | 10 | 1.6 | 6.4 | 0.00 | 0.00 | 0.00 | 92 | 1009.8 |
| 20260505093647 | 21 | 113 | 1.6 | 3.2 | 0.00 | 0.00 | 0.00 | 92 | 1009.7 |
| 20260505093145 | 21 | 72 | 0.0 | 1.6 | 0.00 | 0.00 | 0.00 | 92 | 1009.9 |
| 20260505092642 | 20 | 52 | 3.2 | 3.2 | 0.00 | 0.00 | 0.00 | 92 | 1009.7 |
| 20260505092141 | 20 | 161 | 1.6 | 3.2 | 0.00 | 0.00 | 0.00 | 92 | 1009.8 |
| 20260505091637 | 20 | 64 | 0.0 | 1.6 | 0.00 | 0.00 | 0.00 | 92 | 1009.8 |
| 20260505091135 | 20 | 69 | 0.0 | 3.2 | 0.00 | 0.00 | 0.00 | 92 | 1009.9 |
| 20260505090632 | 20 | 91 | 3.2 | 4.8 | 0.00 | 0.00 | 0.00 | 92 | 1009.9 |
| 20260505090131 | 20 | 30 | 0.0 | 1.6 | 0.00 | 0.00 | 0.00 | 91 | 1009.8 |
| 20260505085628 | 20 | 89 | 0.0 | 3.2 | 0.00 | 0.00 | 0.00 | 91 | 1009.8 |
| 20260505085126 | 20 | 86 | 0.0 | 3.2 | 0.00 | 0.00 | 0.00 | 91 | 1009.9 |
| 20260505084623 | 20 | 127 | 1.6 | 3.2 | 0.00 | 0.00 | 0.00 | 91 | 1010.2 |
| 20260505084122 | 20 | 64 | 0.0 | 1.6 | 0.00 | 0.00 | 0.00 | 91 | 1010.4 |
| 20260505083619 | 20 | 86 | 1.6 | 1.6 | 0.00 | 0.00 | 0.00 | 91 | 1010.3 |
| 20260505083115 | 20 | 61 | 0.0 | 1.6 | 0.00 | 0.00 | 0.00 | 91 | 1010.3 |
| 20260505082611 | 20 | 72 | 1.6 | 1.6 | 0.00 | 0.00 | 0.00 | 91 | 1010.4 |
| 20260505082108 | 20 | 99 | 3.2 | 4.8 | 0.00 | 0.00 | 0.00 | 91 | 1010.6 |
| 20260505081604 | 20 | 85 | 0.0 | 6.4 | 0.00 | 0.00 | 0.00 | 90 | 1010.6 |
| 20260505081102 | 20 | 90 | 3.2 | 4.8 | 0.00 | 0.00 | 0.00 | 90 | 1010.7 |
| 20260505080557 | 20 | 77 | 3.2 | 3.2 | 0.00 | 0.00 | 0.00 | 90 | 1010.7 |
| 20260505080054 | 20 | 79 | 1.6 | 3.2 | 0.00 | 0.00 | 0.00 | 90 | 1010.8 |
| 20260505075550 | 20 | 105 | 1.6 | 6.4 | 0.00 | 0.00 | 0.00 | 90 | 1010.9 |
| 20260505075047 | 20 | 102 | 1.6 | 1.6 | 0.00 | 0.00 | 0.00 | 90 | 1011.0 |
| 20260505074544 | 20 | 157 | 3.2 | 3.2 | 0.00 | 0.00 | 0.00 | 90 | 1010.7 |
| 20260505074042 | 20 | 78 | 0.0 | 1.6 | 0.00 | 0.00 | 0.00 | 89 | 1010.7 |
| 20260505073539 | 20 | 120 | 1.6 | 3.2 | 0.00 | 0.00 | 0.00 | 89 | 1010.8 |
| 20260505073038 | 20 | 85 | 1.6 | 3.2 | 0.00 | 0.00 | 0.00 | 89 | 1010.9 |
| 20260505072533 | 20 | 70 | 1.6 | 6.4 | 0.00 | 0.00 | 0.00 | 89 | 1010.9 |
| 20260505072029 | 20 | 66 | 0.0 | 3.2 | 0.00 | 0.00 | 0.00 | 89 | 1011.0 |
| 20260505071524 | 20 | 69 | 1.6 | 1.6 | 0.00 | 0.00 | 0.00 | 89 | 1010.8 |
| 20260505071023 | 20 | 60 | 0.0 | 1.6 | 0.00 | 0.00 | 0.00 | 89 | 1011.0 |
| 20260505070520 | 20 | 88 | 4.8 | 4.8 | 0.00 | 0.00 | 0.00 | 89 | 1011.2 |
| 20260505070016 | 20 | 97 | 1.6 | 3.2 | 0.00 | 0.00 | 0.00 | 89 | 1011.4 |
| 20260505065512 | 20 | 79 | 0.0 | 1.6 | 0.00 | 0.00 | 0.00 | 89 | 1011.3 |
| 20260505065008 | 20 | 86 | 1.6 | 6.4 | 0.00 | 0.00 | 0.00 | 89 | 1011.6 |
| 20260505064505 | 20 | 63 | 1.6 | 1.6 | 0.00 | 0.00 | 0.00 | 88 | 1011.6 |
| 20260505064004 | 20 | 190 | 3.2 | 6.4 | 0.00 | 0.00 | 0.00 | 88 | 1011.5 |
| 20260505063500 | 20 | 103 | 4.8 | 6.4 | 0.00 | 0.00 | 0.00 | 88 | 1011.5 |
| 20260505062956 | 20 | 71 | 1.6 | 1.6 | 0.00 | 0.00 | 0.00 | 88 | 1011.4 |
| 20260505062453 | 20 | 102 | 3.2 | 4.8 | 0.00 | 0.00 | 0.00 | 88 | 1011.7 |
| 20260505061950 | 21 | 113 | 0.0 | 1.6 | 0.00 | 0.00 | 0.00 | 87 | 1011.7 |
| 20260505061448 | 21 | 71 | 0.0 | 4.8 | 0.00 | 0.00 | 0.00 | 87 | 1011.6 |
| 20260505060946 | 21 | 79 | 1.6 | 4.8 | 0.00 | 0.00 | 0.00 | 87 | 1011.6 |
| 20260505060443 | 21 | 53 | 1.6 | 6.4 | 0.00 | 0.00 | 0.00 | 87 | 1011.6 |
| 20260505055939 | 21 | 131 | 1.6 | 6.4 | 0.00 | 0.00 | 0.00 | 87 | 1011.5 |
| 20260505055435 | 21 | 81 | 0.0 | 1.6 | 0.00 | 0.00 | 0.00 | 87 | 1011.3 |
| 20260505054932 | 21 | 81 | 3.2 | 3.2 | 0.00 | 0.00 | 0.00 | 86 | 1011.5 |
| 20260505054429 | 21 | 71 | 0.0 | 3.2 | 0.00 | 0.00 | 0.00 | 86 | 1011.5 |
| 20260505053927 | 21 | 71 | 0.0 | 4.8 | 0.00 | 0.00 | 0.00 | 86 | 1011.5 |
| 20260505053424 | 21 | 106 | 1.6 | 4.8 | 0.00 | 0.00 | 0.00 | 85 | 1011.6 |
| 20260505052921 | 21 | 67 | 3.2 | 12.9 | 0.00 | 0.00 | 0.00 | 85 | 1011.6 |
| 20260505052418 | 21 | 107 | 1.6 | 9.7 | 0.00 | 0.00 | 0.00 | 85 | 1011.5 |
| 20260505051915 | 21 | 78 | 0.0 | 6.4 | 0.00 | 0.00 | 0.00 | 85 | 1011.4 |
| 20260505051412 | 21 | 42 | 3.2 | 11.3 | 0.00 | 0.00 | 0.00 | 84 | 1011.3 |
| 20260505050910 | 21 | 66 | 0.0 | 9.7 | 0.00 | 0.00 | 0.00 | 84 | 1011.5 |
| 20260505050408 | 21 | 102 | 1.6 | 3.2 | 0.00 | 0.00 | 0.00 | 84 | 1011.6 |
| 20260505041336 | 22 | 113 | 3.2 | 3.2 | 0.00 | 0.00 | 0.00 | 81 | 1011.8 |
| 20260505040833 | 22 | 60 | 1.6 | 4.8 | 0.00 | 0.00 | 0.00 | 81 | 1011.8 |
| 20260505040330 | 22 | 182 | 3.2 | 4.8 | 0.00 | 0.00 | 0.00 | 80 | 1011.9 |
| 20260505035827 | 22 | 85 | 0.0 | 6.4 | 0.00 | 0.00 | 0.00 | 80 | 1011.8 |
| 20260505035323 | 22 | 103 | 0.0 | 14.5 | 0.00 | 0.00 | 0.00 | 80 | 1011.8 |
| 20260505034821 | 22 | 71 | 1.6 | 3.2 | 0.00 | 0.00 | 0.00 | 80 | 1011.7 |
| 20260505034317 | 22 | 79 | 0.0 | 3.2 | 0.00 | 0.00 | 0.00 | 79 | 1011.7 |
| 20260505033814 | 22 | 118 | 3.2 | 4.8 | 0.00 | 0.00 | 0.00 | 79 | 1011.5 |
| 20260505033311 | 22 | 92 | 3.2 | 4.8 | 0.00 | 0.00 | 0.00 | 79 | 1011.7 |
| 20260505032809 | 22 | 107 | 4.8 | 6.4 | 0.00 | 0.00 | 0.00 | 79 | 1011.6 |
| 20260505032305 | 22 | 68 | 1.6 | 6.4 | 0.00 | 0.00 | 0.00 | 79 | 1011.7 |
| 20260505031803 | 22 | 68 | 1.6 | 4.8 | 0.00 | 0.00 | 0.00 | 79 | 1011.7 |
| 20260505031259 | 22 | 88 | 1.6 | 3.2 | 0.00 | 0.00 | 0.00 | 79 | 1011.7 |
| 20260505030756 | 22 | 101 | 3.2 | 4.8 | 0.00 | 0.00 | 0.00 | 79 | 1011.8 |
| 20260505030252 | 22 | 60 | 1.6 | 6.4 | 0.00 | 0.00 | 0.00 | 78 | 1011.5 |
| 20260505025747 | 22 | 68 | 3.2 | 6.4 | 0.00 | 0.00 | 0.00 | 78 | 1011.8 |
| 20260505025246 | 22 | 91 | 1.6 | 4.8 | 0.00 | 0.00 | 0.00 | 78 | 1011.7 |
| 20260505024744 | 23 | 88 | 1.6 | 3.2 | 0.00 | 0.00 | 0.00 | 78 | 1011.8 |
| 20260505024241 | 23 | 74 | 0.0 | 1.6 | 0.00 | 0.00 | 0.00 | 77 | 1011.7 |
| 20260505023738 | 23 | 178 | 1.6 | 4.8 | 0.00 | 0.00 | 0.00 | 76 | 1011.7 |
| 20260505023235 | 23 | 81 | 1.6 | 4.8 | 0.00 | 0.00 | 0.00 | 76 | 1011.6 |
| 20260505022733 | 23 | 114 | 3.2 | 6.4 | 0.00 | 0.00 | 0.00 | 76 | 1011.7 |
| 20260505022230 | 23 | 165 | 3.2 | 3.2 | 0.00 | 0.00 | 0.00 | 76 | 1011.4 |
| 20260505021726 | 23 | 94 | 1.6 | 11.3 | 0.00 | 0.00 | 0.00 | 76 | 1011.6 |
| 20260505021223 | 23 | 79 | 1.6 | 3.2 | 0.00 | 0.00 | 0.00 | 76 | 1011.5 |
| 20260505020719 | 23 | 128 | 3.2 | 6.4 | 0.00 | 0.00 | 0.00 | 75 | 1011.6 |
| 20260505020214 | 23 | 98 | 1.6 | 3.2 | 0.00 | 0.00 | 0.00 | 75 | 1011.6 |
| 20260505015712 | 23 | 115 | 3.2 | 4.8 | 0.00 | 0.00 | 0.00 | 75 | 1011.4 |
| 20260505015209 | 23 | 80 | 1.6 | 3.2 | 0.00 | 0.00 | 0.00 | 75 | 1011.1 |
| 20260505014706 | 23 | 69 | 1.6 | 4.8 | 0.00 | 0.00 | 0.00 | 74 | 1011.2 |
| 20260505014203 | 23 | 79 | 0.0 | 6.4 | 0.00 | 0.00 | 0.00 | 74 | 1011.2 |
| 20260505013700 | 24 | 78 | 3.2 | 4.8 | 0.00 | 0.00 | 0.00 | 73 | 1011.0 |
| 20260505013157 | 24 | 66 | 0.0 | 3.2 | 0.00 | 0.00 | 0.00 | 73 | 1011.3 |
| 20260505012655 | 24 | 105 | 3.2 | 4.8 | 0.00 | 0.00 | 0.00 | 72 | 1011.0 |
| 20260505012152 | 24 | 59 | 0.0 | 4.8 | 0.00 | 0.00 | 0.00 | 72 | 1011.2 |
| 20260505011652 | 24 | 106 | 1.6 | 3.2 | 0.00 | 0.00 | 0.00 | 71 | 1011.2 |
| 20260505011150 | 25 | 71 | 4.8 | 6.4 | 0.00 | 0.00 | 0.00 | 70 | 1011.1 |
| 20260505010645 | 25 | 106 | 3.2 | 6.4 | 0.00 | 0.00 | 0.00 | 70 | 1011.1 |
| 20260505010142 | 25 | 152 | 1.6 | 4.8 | 0.00 | 0.00 | 0.00 | 70 | 1010.9 |
| 20260505005638 | 25 | 71 | 0.0 | 3.2 | 0.00 | 0.00 | 0.00 | 70 | 1011.1 |
| 20260505005135 | 25 | 129 | 1.6 | 3.2 | 0.00 | 0.00 | 0.00 | 70 | 1010.9 |
| 20260505004632 | 25 | 65 | 1.6 | 1.6 | 0.00 | 0.00 | 0.00 | 70 | 1011.0 |
| 20260505004129 | 25 | 71 | 3.2 | 11.3 | 0.00 | 0.00 | 0.00 | 69 | 1011.1 |
| 20260505003626 | 25 | 86 | 1.6 | 9.7 | 0.00 | 0.00 | 0.00 | 69 | 1011.2 |
| 20260505003123 | 25 | 146 | 4.8 | 6.4 | 0.00 | 0.00 | 0.00 | 69 | 1011.0 |
| 20260505002619 | 25 | 77 | 1.6 | 3.2 | 0.00 | 0.00 | 0.00 | 68 | 1011.2 |
| 20260505002118 | 25 | 127 | 3.2 | 12.9 | 0.00 | 0.00 | 0.00 | 68 | 1011.4 |
| 20260505001614 | 25 | 100 | 1.6 | 3.2 | 0.00 | 0.00 | 0.00 | 68 | 1011.1 |
| 20260505001112 | 25 | 134 | 1.6 | 3.2 | 0.00 | 0.00 | 0.00 | 68 | 1011.3 |
| 20260505000609 | 25 | 84 | 0.0 | 1.6 | 0.00 | 0.00 | 0.00 | 67 | 1011.1 |
| 20260505000107 | 25 | 81 | 1.6 | 4.8 | 0.00 | 0.00 | 0.00 | 66 | 1011.1 |
| 20260504235603 | 26 | 73 | 1.6 | 4.8 | 0.00 | 0.00 | 0.00 | 66 | 1011.3 |
| 20260504235059 | 26 | 137 | 3.2 | 4.8 | 0.00 | 0.00 | 0.00 | 66 | 1011.4 |
| 20260504234557 | 26 | 97 | 1.6 | 9.7 | 0.00 | 0.00 | 0.00 | 65 | 1011.3 |
| 20260504234054 | 26 | 79 | 1.6 | 4.8 | 0.00 | 0.00 | 0.00 | 65 | 1011.4 |
| 20260504233549 | 26 | 73 | 1.6 | 4.8 | 0.00 | 0.00 | 0.00 | 64 | 1011.4 |
| 20260504233046 | 26 | 128 | 1.6 | 6.4 | 0.00 | 0.00 | 0.00 | 64 | 1011.4 |
| 20260504232543 | 26 | 51 | 3.2 | 4.8 | 0.00 | 0.00 | 0.00 | 63 | 1011.5 |
| 20260504232041 | 26 | 119 | 4.8 | 11.3 | 0.00 | 0.00 | 0.00 | 62 | 1011.3 |
| 20260504231537 | 26 | 114 | 4.8 | 9.7 | 0.00 | 0.00 | 0.00 | 62 | 1011.4 |
| 20260504231033 | 27 | 116 | 3.2 | 9.7 | 0.00 | 0.00 | 0.00 | 62 | 1011.4 |
| 20260504230530 | 27 | 173 | 4.8 | 9.7 | 0.00 | 0.00 | 0.00 | 60 | 1011.4 |
| 20260504230029 | 27 | 72 | 3.2 | 9.7 | 0.00 | 0.00 | 0.00 | 60 | 1011.6 |
| 20260504225525 | 27 | 59 | 1.6 | 6.4 | 0.00 | 0.00 | 0.00 | 60 | 1011.7 |
| 20260504225022 | 27 | 27 | 4.8 | 9.7 | 0.00 | 0.00 | 0.00 | 60 | 1011.6 |
| 20260504224519 | 27 | 115 | 1.6 | 6.4 | 0.00 | 0.00 | 0.00 | 60 | 1011.7 |
| 20260504224016 | 27 | 112 | 1.6 | 3.2 | 0.00 | 0.00 | 0.00 | 60 | 1011.8 |
| 20260504223513 | 27 | 77 | 1.6 | 11.3 | 0.00 | 0.00 | 0.00 | 60 | 1011.9 |
| 20260504223009 | 27 | 99 | 8.0 | 14.5 | 0.00 | 0.00 | 0.00 | 57 | 1011.9 |
| 20260504222506 | 28 | 74 | 0.0 | 9.7 | 0.00 | 0.00 | 0.00 | 59 | 1011.9 |
| 20260504222003 | 27 | 94 | 0.0 | 4.8 | 0.00 | 0.00 | 0.00 | 59 | 1011.6 |
| 20260504221500 | 27 | 99 | 3.2 | 4.8 | 0.00 | 0.00 | 0.00 | 60 | 1011.7 |
| 20260504220957 | 27 | 64 | 3.2 | 12.9 | 0.00 | 0.00 | 0.00 | 60 | 1011.8 |
| 20260504220453 | 27 | 86 | 3.2 | 6.4 | 0.00 | 0.00 | 0.00 | 60 | 1012.0 |
| 20260504215950 | 27 | 102 | 3.2 | 6.4 | 0.00 | 0.00 | 0.00 | 59 | 1012.1 |
| 20260504215447 | 26 | 72 | 1.6 | 6.4 | 0.00 | 0.00 | 0.00 | 62 | 1012.2 |
| 20260504214944 | 26 | 73 | 1.6 | 3.2 | 0.00 | 0.00 | 0.00 | 61 | 1012.0 |
| 20260504214440 | 27 | 111 | 3.2 | 9.7 | 0.00 | 0.00 | 0.00 | 59 | 1012.2 |
| 20260504213937 | 27 | 106 | 3.2 | 9.7 | 0.00 | 0.00 | 0.00 | 58 | 1012.3 |
| 20260504213433 | 27 | 130 | 1.6 | 3.2 | 0.00 | 0.00 | 0.00 | 61 | 1012.5 |
| 20260504212931 | 27 | 70 | 0.0 | 9.7 | 0.00 | 0.00 | 0.00 | 59 | 1012.6 |
| 20260504212426 | 27 | 75 | 3.2 | 4.8 | 0.00 | 0.00 | 0.00 | 57 | 1012.7 |